カタログに戻る

FENGYUN 1C DEB

運用中PO
NORAD 30116·DEBRIS·🇨🇳 China

打ち上げ May 10, 1999 から Taiyuan Satellite Launch Center

Loading…

次のパス (今後24時間)

TLE

最新Source: Space-Track

元期: Sep 14, 2026, 06:28 UTC

1 30116U 99025RV  26257.26947829  .00002372  00000-0  91754-3 0  9998
2 30116  99.3891 354.9482 0019317 266.1634 117.0185 14.31074792 14428

AllMySatでFENGYUN 1C DEBをリアルタイム追跡

Download on the App Store